Time,TemperatureF,DewpointF,PressureIn,WindDirection,WindDirectionDegrees,WindSpeedMPH,WindSpeedGustMPH,Humidity,HourlyPrecipIn,Conditions,Clouds,dailyrainin,SoftwareType,DateUTC
2013-08-27 00:01:00,80.0,73.0,29.87,SSW,203,0.0,0.0,79,0.00,,,0.00,WUHU216HW,2013-08-27 05:01:00,
2013-08-27 00:06:00,80.0,73.0,29.87,SSW,203,0.0,0.0,79,0.00,,,0.00,WUHU216HW,2013-08-27 05:06:00,
2013-08-27 00:11:00,79.8,72.8,29.87,SSE,158,0.0,0.0,79,0.00,,,0.00,WUHU216HW,2013-08-27 05:11:00,
2013-08-27 00:16:00,79.8,72.8,29.87,SSW,203,0.0,0.0,79,0.00,,,0.00,WUHU216HW,2013-08-27 05:16:00,
2013-08-27 00:21:00,79.8,72.8,29.87,SW,225,0.0,0.0,79,0.00,,,0.00,WUHU216HW,2013-08-27 05:21:00,
2013-08-27 00:26:00,79.7,72.8,29.87,South,180,0.0,0.0,79,0.00,,,0.00,WUHU216HW,2013-08-27 05:26:00,
2013-08-27 00:31:00,79.5,72.4,29.87,SSW,203,0.0,0.0,79,0.00,,,0.00,WUHU216HW,2013-08-27 05:31:00,
2013-08-27 00:36:00,79.5,72.4,29.87,SSW,203,0.0,0.0,79,0.00,,,0.00,WUHU216HW,2013-08-27 05:36:00,
2013-08-27 00:41:00,79.5,72.8,29.87,South,180,0.0,0.0,80,0.00,,,0.00,WUHU216HW,2013-08-27 05:41:00,
2013-08-27 00:46:00,79.3,72.6,29.87,South,180,0.0,0.0,80,0.00,,,0.00,WUHU216HW,2013-08-27 05:46:00,
2013-08-27 00:51:00,79.3,72.6,29.87,South,180,0.0,0.0,80,0.00,,,0.00,WUHU216HW,2013-08-27 05:51:00,
2013-08-27 00:56:00,79.3,72.6,29.87,SSW,203,0.0,0.0,80,0.00,,,0.00,WUHU216HW,2013-08-27 05:56:00,
2013-08-27 01:01:00,79.1,72.5,29.87,SSE,158,0.0,0.0,80,0.00,,,0.00,WUHU216HW,2013-08-27 06:01:00,
2013-08-27 01:06:00,79.1,72.5,29.87,South,180,0.0,0.0,80,0.00,,,0.00,WUHU216HW,2013-08-27 06:06:00,
2013-08-27 01:11:00,78.9,72.3,29.87,South,180,0.0,0.0,80,0.00,,,0.00,WUHU216HW,2013-08-27 06:11:00,
2013-08-27 01:16:00,78.6,71.9,29.87,South,180,0.0,0.0,80,0.00,,,0.00,WUHU216HW,2013-08-27 06:16:00,
2013-08-27 01:21:00,78.6,71.9,29.87,SSW,203,0.0,0.0,80,0.00,,,0.00,WUHU216HW,2013-08-27 06:21:00,
2013-08-27 01:26:00,78.6,71.9,29.87,SSE,158,0.0,0.0,80,0.00,,,0.00,WUHU216HW,2013-08-27 06:26:00,
2013-08-27 01:31:00,78.4,72.1,29.86,South,180,0.0,0.0,81,0.00,,,0.00,WUHU216HW,2013-08-27 06:31:00,
2013-08-27 01:36:00,78.0,71.7,29.85,SSW,203,0.0,0.0,81,0.00,,,0.00,WUHU216HW,2013-08-27 06:36:00,
2013-08-27 01:41:00,78.0,71.7,29.85,South,180,0.0,0.0,81,0.00,,,0.00,WUHU216HW,2013-08-27 06:41:00,
2013-08-27 01:46:00,77.9,71.6,29.85,SSE,158,0.0,0.0,81,0.00,,,0.00,WUHU216HW,2013-08-27 06:46:00,
2013-08-27 01:52:00,77.7,71.4,29.85,SSW,203,0.0,0.0,81,0.00,,,0.00,WUHU216HW,2013-08-27 06:52:00,
2013-08-27 01:57:00,77.5,71.6,29.84,SSW,203,0.0,0.0,82,0.00,,,0.00,WUHU216HW,2013-08-27 06:57:00,
2013-08-27 02:02:00,77.5,71.6,29.84,South,180,0.0,0.0,82,0.00,,,0.00,WUHU216HW,2013-08-27 07:02:00,
2013-08-27 02:07:00,77.3,71.4,29.84,SSE,158,0.0,0.0,82,0.00,,,0.00,WUHU216HW,2013-08-27 07:07:00,
2013-08-27 02:12:00,77.3,71.4,29.84,SSW,203,0.0,0.0,82,0.00,,,0.00,WUHU216HW,2013-08-27 07:12:00,
2013-08-27 02:17:00,77.3,71.4,29.84,SSW,203,0.0,0.0,82,0.00,,,0.00,WUHU216HW,2013-08-27 07:17:00,
2013-08-27 02:22:00,77.1,71.6,29.84,SSE,158,0.0,0.0,83,0.00,,,0.00,WUHU216HW,2013-08-27 07:22:00,
2013-08-27 02:27:00,77.1,71.6,29.83,SW,225,0.0,0.0,83,0.00,,,0.00,WUHU216HW,2013-08-27 07:27:00,
2013-08-27 02:32:00,77.1,71.6,29.83,SSW,203,0.0,0.0,83,0.00,,,0.00,WUHU216HW,2013-08-27 07:32:00,
2013-08-27 02:37:00,77.0,71.4,29.83,SSW,203,0.0,0.0,83,0.00,,,0.00,WUHU216HW,2013-08-27 07:37:00,
2013-08-27 02:42:00,77.0,71.4,29.83,SSW,203,0.0,0.0,83,0.00,,,0.00,WUHU216HW,2013-08-27 07:42:00,
2013-08-27 02:47:00,76.8,70.8,29.83,South,180,0.0,0.0,82,0.00,,,0.00,WUHU216HW,2013-08-27 07:47:00,
2013-08-27 02:52:00,76.8,71.2,29.82,SSW,203,0.0,0.0,83,0.00,,,0.00,WUHU216HW,2013-08-27 07:52:00,
2013-08-27 02:57:00,76.8,71.2,29.82,SSE,158,0.0,0.0,83,0.00,,,0.00,WUHU216HW,2013-08-27 07:57:00,
2013-08-27 03:02:00,76.8,71.2,29.82,SSW,203,0.0,0.0,83,0.00,,,0.00,WUHU216HW,2013-08-27 08:02:00,
2013-08-27 03:07:00,76.8,71.2,29.82,SSE,158,0.0,0.0,83,0.00,,,0.00,WUHU216HW,2013-08-27 08:07:00,
2013-08-27 03:12:00,76.8,71.2,29.82,SSW,203,0.0,0.0,83,0.00,,,0.00,WUHU216HW,2013-08-27 08:12:00,
2013-08-27 03:17:00,76.8,70.8,29.82,SSW,203,0.0,0.0,82,0.00,,,0.00,WUHU216HW,2013-08-27 08:17:00,
2013-08-27 03:22:00,76.6,70.7,29.82,SSW,203,0.0,0.0,82,0.00,,,0.00,WUHU216HW,2013-08-27 08:22:00,
2013-08-27 03:27:00,76.4,70.9,29.83,SSW,203,0.0,0.0,83,0.00,,,0.00,WUHU216HW,2013-08-27 08:27:00,
2013-08-27 03:32:00,76.2,70.7,29.83,South,180,0.0,0.0,83,0.00,,,0.00,WUHU216HW,2013-08-27 08:32:00,
2013-08-27 03:37:00,76.1,70.5,29.83,SSW,203,0.0,0.0,83,0.00,,,0.00,WUHU216HW,2013-08-27 08:37:00,
2013-08-27 03:42:00,75.9,70.4,29.83,SSW,203,0.0,0.0,83,0.00,,,0.00,WUHU216HW,2013-08-27 08:42:00,
2013-08-27 03:47:00,75.9,70.4,29.83,South,180,0.0,0.0,83,0.00,,,0.00,WUHU216HW,2013-08-27 08:47:00,
2013-08-27 03:52:00,75.7,70.2,29.83,South,180,0.0,0.0,83,0.00,,,0.00,WUHU216HW,2013-08-27 08:52:00,
2013-08-27 03:57:00,75.7,70.5,29.83,SSW,203,0.0,0.0,84,0.00,,,0.00,WUHU216HW,2013-08-27 08:57:00,
2013-08-27 04:02:00,75.5,70.4,29.83,South,180,0.0,0.0,84,0.00,,,0.00,WUHU216HW,2013-08-27 09:02:00,
2013-08-27 04:07:00,75.3,70.2,29.82,SW,225,0.0,0.0,84,0.00,,,0.00,WUHU216HW,2013-08-27 09:07:00,
2013-08-27 04:12:00,75.3,70.2,29.83,SW,225,0.0,0.0,84,0.00,,,0.00,WUHU216HW,2013-08-27 09:12:00,
2013-08-27 04:17:00,75.3,70.2,29.83,SSW,203,0.0,0.0,84,0.00,,,0.00,WUHU216HW,2013-08-27 09:17:00,
2013-08-27 04:22:00,75.0,69.9,29.83,SW,225,0.0,0.0,84,0.00,,,0.00,WUHU216HW,2013-08-27 09:22:00,
2013-08-27 04:27:00,75.0,69.9,29.83,South,180,0.0,0.0,84,0.00,,,0.00,WUHU216HW,2013-08-27 09:27:00,
2013-08-27 04:32:00,75.0,69.9,29.83,SSW,203,0.0,0.0,84,0.00,,,0.00,WUHU216HW,2013-08-27 09:32:00,
2013-08-27 04:37:00,74.8,69.7,29.83,SW,225,0.0,0.0,84,0.00,,,0.00,WUHU216HW,2013-08-27 09:37:00,
2013-08-27 04:42:00,74.4,69.7,29.83,SSW,203,0.0,0.0,85,0.00,,,0.00,WUHU216HW,2013-08-27 09:42:00,
2013-08-27 04:47:00,74.3,69.5,29.83,WSW,248,0.0,0.0,85,0.00,,,0.00,WUHU216HW,2013-08-27 09:47:00,
2013-08-27 04:52:00,74.1,69.3,29.83,South,180,0.0,0.0,85,0.00,,,0.00,WUHU216HW,2013-08-27 09:52:00,
2013-08-27 04:57:00,73.9,69.1,29.83,South,180,0.0,0.0,85,0.00,,,0.00,WUHU216HW,2013-08-27 09:57:00,
2013-08-27 05:02:00,73.7,68.9,29.82,SW,225,0.0,0.0,85,0.00,,,0.00,WUHU216HW,2013-08-27 10:02:00,
2013-08-27 05:07:00,73.7,68.9,29.82,SSW,203,0.0,0.0,85,0.00,,,0.00,WUHU216HW,2013-08-27 10:07:00,
2013-08-27 05:12:00,73.5,68.8,29.82,SSW,203,0.0,0.0,85,0.00,,,0.00,WUHU216HW,2013-08-27 10:12:00,
2013-08-27 05:17:00,73.5,69.1,29.82,SSW,203,0.0,0.0,86,0.00,,,0.00,WUHU216HW,2013-08-27 10:17:00,
2013-08-27 05:22:00,73.2,68.7,29.82,SSW,203,0.0,0.0,86,0.00,,,0.00,WUHU216HW,2013-08-27 10:22:00,
2013-08-27 05:27:00,73.2,68.7,29.83,SSW,203,0.0,0.0,86,0.00,,,0.00,WUHU216HW,2013-08-27 10:27:00,
2013-08-27 05:32:00,73.0,68.6,29.82,SSW,203,0.0,0.0,86,0.00,,,0.00,WUHU216HW,2013-08-27 10:32:00,
2013-08-27 05:37:00,72.8,68.4,29.82,SSW,203,0.0,0.0,86,0.00,,,0.00,WUHU216HW,2013-08-27 10:37:00,
2013-08-27 05:42:00,72.6,68.2,29.82,SSW,203,0.0,0.0,86,0.00,,,0.00,WUHU216HW,2013-08-27 10:42:00,
2013-08-27 05:47:00,72.5,68.4,29.82,South,180,0.0,0.0,87,0.00,,,0.00,WUHU216HW,2013-08-27 10:47:00,
2013-08-27 05:52:00,72.3,68.2,29.82,SSW,203,0.0,0.0,87,0.00,,,0.00,WUHU216HW,2013-08-27 10:52:00,
2013-08-27 05:57:00,72.3,68.2,29.83,SSW,203,0.0,0.0,87,0.00,,,0.00,WUHU216HW,2013-08-27 10:57:00,
2013-08-27 06:02:00,72.3,68.2,29.83,SSW,203,0.0,0.0,87,0.00,,,0.00,WUHU216HW,2013-08-27 11:02:00,
2013-08-27 06:07:00,72.3,68.2,29.83,South,180,0.0,0.0,87,0.00,,,0.00,WUHU216HW,2013-08-27 11:07:00,
2013-08-27 06:12:00,72.1,68.0,29.83,SSW,203,0.0,0.0,87,0.00,,,0.00,WUHU216HW,2013-08-27 11:12:00,
2013-08-27 06:17:00,72.1,68.0,29.83,SSW,203,0.0,0.0,87,0.00,,,0.00,WUHU216HW,2013-08-27 11:17:00,
2013-08-27 06:22:00,72.1,68.0,29.83,South,180,0.0,0.0,87,0.00,,,0.00,WUHU216HW,2013-08-27 11:22:00,
2013-08-27 06:27:00,72.1,68.0,29.83,SSW,203,0.0,0.0,87,0.00,,,0.00,WUHU216HW,2013-08-27 11:27:00,
2013-08-27 06:32:00,71.9,67.8,29.83,South,180,0.0,0.0,87,0.00,,,0.00,WUHU216HW,2013-08-27 11:32:00,
2013-08-27 06:37:00,72.1,68.0,29.83,SSW,203,0.0,0.0,87,0.00,,,0.00,WUHU216HW,2013-08-27 11:37:00,
2013-08-27 06:42:00,72.1,68.3,29.83,South,180,0.0,0.0,88,0.00,,,0.00,WUHU216HW,2013-08-27 11:42:00,
2013-08-27 06:47:00,72.3,68.5,29.83,SSW,203,0.0,0.0,88,0.00,,,0.00,WUHU216HW,2013-08-27 11:47:00,
2013-08-27 06:52:00,72.6,68.9,29.83,South,180,0.0,0.0,88,0.00,,,0.00,WUHU216HW,2013-08-27 11:52:00,
2013-08-27 06:57:00,72.8,69.1,29.83,SSW,203,0.0,0.0,88,0.00,,,0.00,WUHU216HW,2013-08-27 11:57:00,
2013-08-27 07:02:00,73.0,69.2,29.83,SSE,158,0.0,0.0,88,0.00,,,0.00,WUHU216HW,2013-08-27 12:02:00,
2013-08-27 07:07:00,73.2,69.8,29.83,South,180,0.0,0.0,89,0.00,,,0.00,WUHU216HW,2013-08-27 12:07:00,
2013-08-27 07:12:00,73.2,69.8,29.83,SSW,203,0.0,0.0,89,0.00,,,0.00,WUHU216HW,2013-08-27 12:12:00,
2013-08-27 07:17:00,73.5,69.8,29.83,SSE,158,0.0,0.0,88,0.00,,,0.00,WUHU216HW,2013-08-27 12:17:00,
2013-08-27 07:22:00,73.9,70.5,29.83,South,180,0.0,0.0,89,0.00,,,0.00,WUHU216HW,2013-08-27 12:22:00,
2013-08-27 07:27:00,74.1,70.7,29.83,South,180,0.0,0.0,89,0.00,,,0.00,WUHU216HW,2013-08-27 12:27:00,
2013-08-27 07:32:00,74.4,70.7,29.83,South,180,0.0,0.0,88,0.00,,,0.00,WUHU216HW,2013-08-27 12:32:00,
2013-08-27 07:37:00,74.4,70.7,29.83,SSW,203,0.0,0.0,88,0.00,,,0.00,WUHU216HW,2013-08-27 12:37:00,
2013-08-27 07:42:00,75.0,71.2,29.83,SSW,203,0.0,0.0,88,0.00,,,0.00,WUHU216HW,2013-08-27 12:42:00,
2013-08-27 07:47:00,76.6,73.2,29.83,SSW,203,0.0,0.0,89,0.00,,,0.00,WUHU216HW,2013-08-27 12:47:00,
2013-08-27 07:52:00,78.0,74.6,29.83,South,180,0.0,0.0,89,0.00,,,0.00,WUHU216HW,2013-08-27 12:52:00,
2013-08-27 07:57:00,80.2,75.3,29.83,South,180,0.0,0.0,87,0.00,,,0.00,WUHU216HW,2013-08-27 12:57:00,
2013-08-27 08:02:00,81.3,75.6,29.83,SSW,203,0.0,0.0,83,0.00,,,0.00,WUHU216HW,2013-08-27 13:02:00,
2013-08-27 08:07:00,82.4,76.0,29.83,SSW,203,0.0,0.0,81,0.00,,,0.00,WUHU216HW,2013-08-27 13:07:00,
2013-08-27 08:12:00,84.2,76.1,29.83,South,180,0.0,0.0,77,0.00,,,0.00,WUHU216HW,2013-08-27 13:12:00,
2013-08-27 08:17:00,84.9,76.1,29.83,SSW,203,0.0,0.0,75,0.00,,,0.00,WUHU216HW,2013-08-27 13:17:00,
2013-08-27 08:22:00,85.2,75.6,29.83,South,180,0.0,0.0,73,0.00,,,0.00,WUHU216HW,2013-08-27 13:22:00,
2013-08-27 08:27:00,85.8,75.8,29.83,SW,225,0.0,0.0,72,0.00,,,0.00,WUHU216HW,2013-08-27 13:27:00,
2013-08-27 08:32:00,86.1,75.7,29.83,SSE,158,0.0,0.0,71,0.00,,,0.00,WUHU216HW,2013-08-27 13:32:00,
2013-08-27 08:37:00,86.3,75.5,29.84,SSW,203,0.0,0.0,70,0.00,,,0.00,WUHU216HW,2013-08-27 13:37:00,
2013-08-27 08:42:00,86.5,75.2,29.84,SSW,203,0.0,0.0,70,0.00,,,0.00,WUHU216HW,2013-08-27 13:42:00,
2013-08-27 08:47:00,86.7,75.3,29.84,SSW,203,0.0,0.0,69,0.00,,,0.00,WUHU216HW,2013-08-27 13:47:00,
2013-08-27 08:52:00,86.9,75.5,29.84,SSW,203,0.0,0.0,69,0.00,,,0.00,WUHU216HW,2013-08-27 13:52:00,
2013-08-27 08:57:00,87.0,75.7,29.84,SSW,203,0.0,0.0,69,0.00,,,0.00,WUHU216HW,2013-08-27 13:57:00,
2013-08-27 09:02:00,87.0,74.7,29.84,SW,225,0.0,0.0,67,0.00,,,0.00,WUHU216HW,2013-08-27 14:02:00,
2013-08-27 09:07:00,87.0,74.7,29.83,SSW,203,0.0,0.0,67,0.00,,,0.00,WUHU216HW,2013-08-27 14:07:00,
2013-08-27 09:12:00,87.0,74.7,29.83,South,180,0.0,0.0,67,0.00,,,0.00,WUHU216HW,2013-08-27 14:12:00,
2013-08-27 09:17:00,87.2,75.4,29.83,SW,225,0.0,0.0,68,0.00,,,0.00,WUHU216HW,2013-08-27 14:17:00,
2013-08-27 09:23:00,87.6,75.2,29.83,SSW,203,0.0,0.0,67,0.00,,,0.00,WUHU216HW,2013-08-27 14:23:00,
2013-08-27 09:28:00,87.9,75.1,29.83,West,270,0.0,0.0,66,0.00,,,0.00,WUHU216HW,2013-08-27 14:28:00,
2013-08-27 09:33:00,87.9,74.7,29.83,SSW,203,0.0,0.0,65,0.00,,,0.00,WUHU216HW,2013-08-27 14:33:00,
2013-08-27 09:38:00,87.9,74.7,29.83,SSW,203,0.0,0.0,65,0.00,,,0.00,WUHU216HW,2013-08-27 14:38:00,
2013-08-27 09:43:00,88.1,74.4,29.83,West,270,0.0,0.0,64,0.00,,,0.00,WUHU216HW,2013-08-27 14:43:00,
2013-08-27 09:48:00,88.3,75.0,29.83,WNW,293,0.0,0.0,65,0.00,,,0.00,WUHU216HW,2013-08-27 14:48:00,
2013-08-27 09:53:00,88.5,74.7,29.83,SSW,203,0.0,0.0,64,0.00,,,0.00,WUHU216HW,2013-08-27 14:53:00,
2013-08-27 09:57:00,88.8,75.1,29.83,WNW,293,0.0,0.0,64,0.00,,,0.00,WUHU216HW,2013-08-27 14:57:00,
2013-08-27 10:02:00,88.7,74.4,29.84,South,180,0.0,0.0,63,0.00,,,0.00,WUHU216HW,2013-08-27 15:02:00,
2013-08-27 10:07:00,88.8,75.1,29.84,WNW,293,0.0,0.0,64,0.00,,,0.00,WUHU216HW,2013-08-27 15:07:00,
2013-08-27 10:12:00,88.8,74.6,29.84,SW,225,0.0,0.0,63,0.00,,,0.00,WUHU216HW,2013-08-27 15:12:00,
2013-08-27 10:17:00,88.8,74.6,29.84,SW,225,0.0,0.0,63,0.00,,,0.00,WUHU216HW,2013-08-27 15:17:00,
2013-08-27 10:22:00,89.2,75.0,29.83,SSW,203,0.0,0.0,63,0.00,,,0.00,WUHU216HW,2013-08-27 15:22:00,
2013-08-27 10:28:00,89.4,74.6,29.84,WNW,293,0.0,0.0,62,0.00,,,0.00,WUHU216HW,2013-08-27 15:28:00,
2013-08-27 10:33:00,89.4,75.1,29.83,WNW,293,0.0,0.0,63,0.00,,,0.00,WUHU216HW,2013-08-27 15:33:00,
2013-08-27 10:38:00,89.7,75.0,29.83,SSW,203,0.0,0.0,62,0.00,,,0.00,WUHU216HW,2013-08-27 15:38:00,
2013-08-27 10:43:00,90.1,75.3,29.83,South,180,0.0,0.0,62,0.00,,,0.00,WUHU216HW,2013-08-27 15:43:00,
2013-08-27 10:48:00,90.5,75.6,29.83,SW,225,0.0,0.0,62,0.00,,,0.00,WUHU216HW,2013-08-27 15:48:00,
2013-08-27 10:53:00,90.8,76.0,29.83,SW,225,0.0,0.0,62,0.00,,,0.00,WUHU216HW,2013-08-27 15:53:00,
2013-08-27 10:58:00,91.5,76.6,29.83,SSE,158,0.0,0.0,62,0.00,,,0.00,WUHU216HW,2013-08-27 15:58:00,
2013-08-27 11:03:00,91.7,75.3,29.84,West,270,0.0,0.0,59,0.00,,,0.00,WUHU216HW,2013-08-27 16:03:00,
2013-08-27 11:08:00,90.8,75.0,29.84,SSW,203,0.0,0.0,60,0.00,,,0.00,WUHU216HW,2013-08-27 16:08:00,
2013-08-27 11:13:00,90.6,75.8,29.84,SSW,203,0.0,0.0,62,0.00,,,0.00,WUHU216HW,2013-08-27 16:13:00,
2013-08-27 11:18:00,91.2,75.8,29.84,SSW,203,0.0,0.0,61,0.00,,,0.00,WUHU216HW,2013-08-27 16:18:00,
2013-08-27 11:23:00,91.5,75.7,29.84,SSW,203,0.0,0.0,60,0.00,,,0.00,WUHU216HW,2013-08-27 16:23:00,
2013-08-27 11:28:00,91.9,76.1,29.84,SW,225,0.0,0.0,60,0.00,,,0.00,WUHU216HW,2013-08-27 16:28:00,
2013-08-27 11:33:00,92.1,75.7,29.84,SSW,203,0.0,0.0,59,0.00,,,0.00,WUHU216HW,2013-08-27 16:33:00,
2013-08-27 11:38:00,92.3,76.4,29.84,WSW,248,0.0,0.0,60,0.00,,,0.00,WUHU216HW,2013-08-27 16:38:00,
2013-08-27 11:43:00,92.8,77.0,29.84,South,180,0.0,0.0,60,0.00,,,0.00,WUHU216HW,2013-08-27 16:43:00,
2013-08-27 11:48:00,93.0,76.6,29.84,WNW,293,0.0,0.0,59,0.00,,,0.00,WUHU216HW,2013-08-27 16:48:00,
2013-08-27 11:53:00,93.0,76.6,29.84,South,180,0.0,0.0,59,0.00,,,0.00,WUHU216HW,2013-08-27 16:53:00,
2013-08-27 11:58:00,93.3,76.4,29.84,WSW,248,0.0,0.0,58,0.00,,,0.00,WUHU216HW,2013-08-27 16:58:00,
2013-08-27 12:03:00,93.3,75.8,29.84,WNW,293,0.0,0.0,57,0.00,,,0.00,WUHU216HW,2013-08-27 17:03:00,
2013-08-27 12:08:00,92.8,75.3,29.84,WNW,293,0.0,0.0,57,0.00,,,0.00,WUHU216HW,2013-08-27 17:08:00,
2013-08-27 12:13:00,92.8,76.4,29.84,SE,135,0.0,0.0,59,0.00,,,0.00,WUHU216HW,2013-08-27 17:13:00,
2013-08-27 12:18:00,93.0,76.6,29.84,WSW,248,0.0,0.0,59,0.00,,,0.00,WUHU216HW,2013-08-27 17:18:00,
2013-08-27 12:23:00,93.3,76.9,29.84,South,180,0.0,0.0,59,0.00,,,0.00,WUHU216HW,2013-08-27 17:23:00,
2013-08-27 12:28:00,94.2,77.2,29.83,WNW,293,0.0,0.0,58,0.00,,,0.00,WUHU216HW,2013-08-27 17:28:00,
2013-08-27 12:33:00,93.9,75.7,29.84,NW,315,0.0,0.0,56,0.00,,,0.00,WUHU216HW,2013-08-27 17:33:00,
2013-08-27 12:38:00,93.5,76.5,29.84,SW,225,0.0,0.0,58,0.00,,,0.00,WUHU216HW,2013-08-27 17:38:00,
2013-08-27 12:43:00,93.5,76.0,29.84,NW,315,0.0,0.0,57,0.00,,,0.00,WUHU216HW,2013-08-27 17:43:00,
2013-08-27 12:48:00,93.7,76.7,29.84,SSE,158,0.0,0.0,58,0.00,,,0.00,WUHU216HW,2013-08-27 17:48:00,
2013-08-27 12:53:00,94.2,77.7,29.84,SE,135,0.0,0.0,59,0.00,,,0.00,WUHU216HW,2013-08-27 17:53:00,
2013-08-27 12:58:00,94.8,77.7,29.84,SW,225,0.0,0.0,58,0.00,,,0.00,WUHU216HW,2013-08-27 17:58:00,
2013-08-27 13:03:00,95.3,78.2,29.83,South,180,0.0,0.0,58,0.00,,,0.00,WUHU216HW,2013-08-27 18:03:00,
2013-08-27 13:08:00,95.7,78.0,29.83,SSW,203,0.0,0.0,57,0.00,,,0.00,WUHU216HW,2013-08-27 18:08:00,
2013-08-27 13:13:00,96.0,78.3,29.83,SSW,203,0.0,0.0,57,0.00,,,0.00,WUHU216HW,2013-08-27 18:13:00,
2013-08-27 13:18:00,96.4,77.5,29.83,SSE,158,0.0,0.0,55,0.00,,,0.00,WUHU216HW,2013-08-27 18:18:00,
2013-08-27 13:23:00,96.4,77.5,29.83,WNW,293,0.0,0.0,55,0.00,,,0.00,WUHU216HW,2013-08-27 18:23:00,
2013-08-27 13:28:00,95.9,77.6,29.83,SSW,203,0.0,0.0,56,0.00,,,0.00,WUHU216HW,2013-08-27 18:28:00,
2013-08-27 13:33:00,96.0,77.7,29.82,East,90,0.0,0.0,56,0.00,,,0.00,WUHU216HW,2013-08-27 18:33:00,
2013-08-27 13:38:00,95.7,77.4,29.82,ESE,113,0.0,0.0,56,0.00,,,0.00,WUHU216HW,2013-08-27 18:38:00,
2013-08-27 13:43:00,96.0,78.3,29.82,SSE,158,0.0,0.0,57,0.00,,,0.00,WUHU216HW,2013-08-27 18:43:00,
2013-08-27 13:48:00,96.4,78.1,29.82,SW,225,0.0,0.0,56,0.00,,,0.00,WUHU216HW,2013-08-27 18:48:00,
2013-08-27 13:53:00,96.6,78.2,29.82,South,180,0.0,0.0,56,0.00,,,0.00,WUHU216HW,2013-08-27 18:53:00,
2013-08-27 13:58:00,96.6,78.2,29.82,SW,225,0.0,0.0,56,0.00,,,0.00,WUHU216HW,2013-08-27 18:58:00,
2013-08-27 14:03:00,96.4,78.1,29.83,SE,135,0.0,0.0,56,0.00,,,0.00,WUHU216HW,2013-08-27 19:03:00,
2013-08-27 14:08:00,96.9,78.6,29.83,South,180,0.0,0.0,56,0.00,,,0.00,WUHU216HW,2013-08-27 19:08:00,
2013-08-27 14:13:00,97.3,78.4,29.83,SSW,203,0.0,0.0,55,0.00,,,0.00,WUHU216HW,2013-08-27 19:13:00,
2013-08-27 14:18:00,97.3,77.8,29.83,WNW,293,0.0,0.0,54,0.00,,,0.00,WUHU216HW,2013-08-27 19:18:00,
2013-08-27 14:23:00,96.8,77.3,29.83,WNW,293,0.0,0.0,54,0.00,,,0.00,WUHU216HW,2013-08-27 19:23:00,
2013-08-27 14:28:00,96.9,78.0,29.83,SSW,203,0.0,0.0,55,0.00,,,0.00,WUHU216HW,2013-08-27 19:28:00,
2013-08-27 14:33:00,97.1,78.2,29.83,South,180,0.0,0.0,55,0.00,,,0.00,WUHU216HW,2013-08-27 19:33:00,
2013-08-27 14:38:00,97.5,78.0,29.83,NW,315,0.0,0.0,54,0.00,,,0.00,WUHU216HW,2013-08-27 19:38:00,
2013-08-27 14:43:00,96.4,77.0,29.83,WNW,293,0.0,0.0,54,0.00,,,0.00,WUHU216HW,2013-08-27 19:43:00,
2013-08-27 14:48:00,96.0,77.2,29.83,SSE,158,0.0,0.0,55,0.00,,,0.00,WUHU216HW,2013-08-27 19:48:00,
2013-08-27 14:53:00,96.9,78.6,29.83,South,180,0.0,0.0,56,0.00,,,0.00,WUHU216HW,2013-08-27 19:53:00,
2013-08-27 14:58:00,96.9,76.9,29.83,West,270,0.0,0.0,53,0.00,,,0.00,WUHU216HW,2013-08-27 19:58:00,
2013-08-27 15:03:00,95.3,76.6,29.83,NW,315,0.0,0.0,55,0.00,,,0.00,WUHU216HW,2013-08-27 20:03:00,
2013-08-27 15:08:00,95.1,76.9,29.83,WNW,293,0.0,0.0,56,0.00,,,0.00,WUHU216HW,2013-08-27 20:08:00,
2013-08-27 15:13:00,95.5,77.8,29.83,SW,225,0.0,0.0,57,0.00,,,0.00,WUHU216HW,2013-08-27 20:13:00,
2013-08-27 15:18:00,96.4,78.6,29.83,SSW,203,0.0,0.0,57,0.00,,,0.00,WUHU216HW,2013-08-27 20:18:00,
2013-08-27 15:23:00,96.6,78.2,29.82,WNW,293,0.0,0.0,56,0.00,,,0.00,WUHU216HW,2013-08-27 20:23:00,
2013-08-27 15:28:00,96.4,77.5,29.82,WNW,293,0.0,0.0,55,0.00,,,0.00,WUHU216HW,2013-08-27 20:28:00,
2013-08-27 15:33:00,96.6,78.2,29.82,SW,225,0.0,0.0,56,0.00,,,0.00,WUHU216HW,2013-08-27 20:33:00,
2013-08-27 15:38:00,96.8,77.9,29.82,SSW,203,0.0,0.0,55,0.00,,,0.00,WUHU216HW,2013-08-27 20:38:00,
2013-08-27 15:43:00,97.3,78.4,29.82,SSE,158,0.0,0.0,55,0.00,,,0.00,WUHU216HW,2013-08-27 20:43:00,
2013-08-27 15:48:00,97.7,78.7,29.83,SSE,158,0.0,0.0,55,0.00,,,0.00,WUHU216HW,2013-08-27 20:48:00,
2013-08-27 15:53:00,97.8,78.9,29.83,SW,225,0.0,0.0,55,0.00,,,0.00,WUHU216HW,2013-08-27 20:53:00,
2013-08-27 15:58:00,98.6,79.0,29.83,SW,225,0.0,0.0,54,0.00,,,0.00,WUHU216HW,2013-08-27 20:58:00,
2013-08-27 16:03:00,98.7,79.2,29.83,South,180,0.0,0.0,54,0.00,,,0.00,WUHU216HW,2013-08-27 21:03:00,
2013-08-27 16:08:00,98.7,79.2,29.82,West,270,0.0,0.0,54,0.00,,,0.00,WUHU216HW,2013-08-27 21:08:00,
2013-08-27 16:13:00,98.4,78.3,29.83,WSW,248,0.0,0.0,53,0.00,,,0.00,WUHU216HW,2013-08-27 21:13:00,
2013-08-27 16:18:00,98.4,78.8,29.82,SW,225,0.0,0.0,54,0.00,,,0.00,WUHU216HW,2013-08-27 21:18:00,
2013-08-27 16:23:00,98.2,78.1,29.83,WNW,293,0.0,0.0,53,0.00,,,0.00,WUHU216HW,2013-08-27 21:23:00,
2013-08-27 16:28:00,97.3,77.8,29.83,SW,225,0.0,0.0,54,0.00,,,0.00,WUHU216HW,2013-08-27 21:28:00,
2013-08-27 16:33:00,97.1,77.6,29.83,SSW,203,0.0,0.0,54,0.00,,,0.00,WUHU216HW,2013-08-27 21:33:00,
2013-08-27 16:38:00,96.9,78.0,29.83,WNW,293,0.0,0.0,55,0.00,,,0.00,WUHU216HW,2013-08-27 21:38:00,
2013-08-27 16:43:00,97.3,78.4,29.83,SSW,203,0.0,0.0,55,0.00,,,0.00,WUHU216HW,2013-08-27 21:43:00,
2013-08-27 16:48:00,97.5,78.5,29.83,South,180,0.0,0.0,55,0.00,,,0.00,WUHU216HW,2013-08-27 21:48:00,
2013-08-27 16:53:00,97.7,78.2,29.83,WNW,293,0.0,0.0,54,0.00,,,0.00,WUHU216HW,2013-08-27 21:53:00,
2013-08-27 16:58:00,97.5,78.5,29.83,SSW,203,0.0,0.0,55,0.00,,,0.00,WUHU216HW,2013-08-27 21:58:00,
2013-08-27 17:03:00,97.3,78.4,29.83,West,270,0.0,0.0,55,0.00,,,0.00,WUHU216HW,2013-08-27 22:03:00,
2013-08-27 17:08:00,97.1,78.2,29.83,WNW,293,0.0,0.0,55,0.00,,,0.00,WUHU216HW,2013-08-27 22:08:00,
2013-08-27 17:13:00,96.6,78.2,29.83,SSW,203,0.0,0.0,56,0.00,,,0.00,WUHU216HW,2013-08-27 22:13:00,
2013-08-27 17:18:00,96.6,78.2,29.83,West,270,0.0,0.0,56,0.00,,,0.00,WUHU216HW,2013-08-27 22:18:00,
2013-08-27 17:23:00,96.4,78.1,29.84,West,270,0.0,0.0,56,0.00,,,0.00,WUHU216HW,2013-08-27 22:23:00,
2013-08-27 17:28:00,96.4,78.6,29.84,WNW,293,0.0,0.0,57,0.00,,,0.00,WUHU216HW,2013-08-27 22:28:00,
2013-08-27 17:33:00,96.0,78.3,29.84,SSW,203,0.0,0.0,57,0.00,,,0.00,WUHU216HW,2013-08-27 22:33:00,
2013-08-27 17:38:00,96.0,77.7,29.84,West,270,0.0,0.0,56,0.00,,,0.00,WUHU216HW,2013-08-27 22:38:00,
2013-08-27 17:43:00,95.5,77.8,29.84,WSW,248,0.0,0.0,57,0.00,,,0.00,WUHU216HW,2013-08-27 22:43:00,
2013-08-27 17:48:00,95.0,77.9,29.84,WNW,293,0.0,0.0,58,0.00,,,0.00,WUHU216HW,2013-08-27 22:48:00,
2013-08-27 17:53:00,94.2,77.7,29.84,WNW,293,0.0,0.0,59,0.00,,,0.00,WUHU216HW,2013-08-27 22:53:00,
2013-08-27 17:58:00,93.9,78.4,29.84,NW,315,0.0,0.0,61,0.00,,,0.00,WUHU216HW,2013-08-27 22:58:00,
2013-08-27 18:03:00,93.9,78.4,29.84,NW,315,0.0,0.0,61,0.00,,,0.00,WUHU216HW,2013-08-27 23:03:00,
2013-08-27 18:08:00,94.1,79.1,29.84,NNE,23,0.0,0.0,62,0.00,,,0.00,WUHU216HW,2013-08-27 23:08:00,
2013-08-27 18:13:00,94.1,79.1,29.84,NE,45,0.0,0.0,62,0.00,,,0.00,WUHU216HW,2013-08-27 23:13:00,
2013-08-27 18:18:00,93.9,78.9,29.84,North,0,0.0,0.0,62,0.00,,,0.00,WUHU216HW,2013-08-27 23:18:00,
2013-08-27 18:23:00,93.7,78.7,29.84,North,0,0.0,0.0,62,0.00,,,0.00,WUHU216HW,2013-08-27 23:23:00,
2013-08-27 18:28:00,93.0,78.5,29.84,NNW,338,0.0,0.0,63,0.00,,,0.00,WUHU216HW,2013-08-27 23:28:00,
2013-08-27 18:33:00,92.4,78.5,29.84,NW,315,0.0,0.0,64,0.00,,,0.00,WUHU216HW,2013-08-27 23:33:00,
2013-08-27 18:38:00,91.9,77.9,29.84,NNE,23,0.0,0.0,64,0.00,,,0.00,WUHU216HW,2013-08-27 23:38:00,
2013-08-27 18:43:00,91.0,78.0,29.85,NW,315,0.0,0.0,66,0.00,,,0.00,WUHU216HW,2013-08-27 23:43:00,
2013-08-27 18:48:00,90.3,77.8,29.85,NW,315,0.0,0.0,67,0.00,,,0.00,WUHU216HW,2013-08-27 23:48:00,
2013-08-27 18:53:00,89.9,77.5,29.84,NW,315,0.0,0.0,67,0.00,,,0.00,WUHU216HW,2013-08-27 23:53:00,
2013-08-27 18:58:00,89.4,77.5,29.84,NW,315,0.0,0.0,68,0.00,,,0.00,WUHU216HW,2013-08-27 23:58:00,
2013-08-27 19:03:00,88.8,76.9,29.84,NW,315,0.0,0.0,68,0.00,,,0.00,WUHU216HW,2013-08-28 00:03:00,
2013-08-27 19:08:00,88.7,76.8,29.84,NW,315,0.0,0.0,68,0.00,,,0.00,WUHU216HW,2013-08-28 00:08:00,
2013-08-27 19:13:00,87.8,76.8,29.85,NW,315,0.0,0.0,70,0.00,,,0.00,WUHU216HW,2013-08-28 00:13:00,
2013-08-27 19:18:00,87.2,76.3,29.85,NW,315,0.0,0.0,70,0.00,,,0.00,WUHU216HW,2013-08-28 00:18:00,
2013-08-27 19:23:00,86.7,76.1,29.85,NW,315,0.0,0.0,70,0.00,,,0.00,WUHU216HW,2013-08-28 00:23:00,
2013-08-27 19:28:00,86.1,75.7,29.85,NW,315,0.0,0.0,71,0.00,,,0.00,WUHU216HW,2013-08-28 00:28:00,
2013-08-27 19:33:00,85.8,75.4,29.85,NW,315,0.0,0.0,71,0.00,,,0.00,WUHU216HW,2013-08-28 00:33:00,
2013-08-27 19:38:00,85.2,75.6,29.86,NW,315,0.0,0.0,73,0.00,,,0.00,WUHU216HW,2013-08-28 00:38:00,
2013-08-27 19:43:00,84.7,75.5,29.85,NW,315,0.0,0.0,74,0.00,,,0.00,WUHU216HW,2013-08-28 00:43:00,
2013-08-27 19:48:00,84.5,76.1,29.86,NW,315,0.0,0.0,76,0.00,,,0.00,WUHU216HW,2013-08-28 00:48:00,
2013-08-27 19:53:00,84.3,76.1,29.86,NW,315,0.0,0.0,76,0.00,,,0.00,WUHU216HW,2013-08-28 00:53:00,
2013-08-27 19:58:00,84.2,75.7,29.86,NW,315,0.0,0.0,76,0.00,,,0.00,WUHU216HW,2013-08-28 00:58:00,
2013-08-27 20:03:00,84.2,76.1,29.86,NW,315,0.0,0.0,77,0.00,,,0.00,WUHU216HW,2013-08-28 01:03:00,
2013-08-27 20:08:00,84.0,75.9,29.86,NW,315,0.0,0.0,77,0.00,,,0.00,WUHU216HW,2013-08-28 01:08:00,
2013-08-27 20:13:00,83.6,76.0,29.86,NW,315,0.0,0.0,78,0.00,,,0.00,WUHU216HW,2013-08-28 01:13:00,
2013-08-27 20:18:00,83.4,76.2,29.86,NW,315,0.0,0.0,79,0.00,,,0.00,WUHU216HW,2013-08-28 01:18:00,
2013-08-27 20:23:00,83.8,77.0,29.87,NNW,338,0.0,0.0,80,0.00,,,0.00,WUHU216HW,2013-08-28 01:23:00,
2013-08-27 20:28:00,84.0,77.1,29.87,NW,315,0.0,0.0,80,0.00,,,0.00,WUHU216HW,2013-08-28 01:28:00,
2013-08-27 20:33:00,84.0,77.1,29.87,NW,315,0.0,0.0,80,0.00,,,0.00,WUHU216HW,2013-08-28 01:33:00,
2013-08-27 20:38:00,84.0,76.7,29.88,NW,315,0.0,0.0,79,0.00,,,0.00,WUHU216HW,2013-08-28 01:38:00,
2013-08-27 20:43:00,83.8,76.6,29.88,North,0,0.0,0.0,79,0.00,,,0.00,WUHU216HW,2013-08-28 01:43:00,
2013-08-27 20:48:00,83.8,76.6,29.88,NNW,338,0.0,0.0,79,0.00,,,0.00,WUHU216HW,2013-08-28 01:48:00,
2013-08-27 20:53:00,83.6,76.4,29.88,North,0,0.0,0.0,79,0.00,,,0.00,WUHU216HW,2013-08-28 01:53:00,
2013-08-27 20:58:00,83.4,76.4,29.89,North,0,0.0,0.0,79,0.00,,,0.00,WUHU216HW,2013-08-28 01:58:00,
2013-08-27 21:03:00,83.4,75.9,29.88,ENE,68,0.0,0.0,78,0.00,,,0.00,WUHU216HW,2013-08-28 02:03:00,
2013-08-27 21:08:00,83.3,76.1,29.89,NE,45,0.0,0.0,79,0.00,,,0.00,WUHU216HW,2013-08-28 02:08:00,
2013-08-27 21:13:00,83.1,75.9,29.89,ENE,68,0.0,0.0,79,0.00,,,0.00,WUHU216HW,2013-08-28 02:13:00,
2013-08-27 21:18:00,82.9,75.8,29.89,NE,45,0.0,0.0,79,0.00,,,0.00,WUHU216HW,2013-08-28 02:18:00,
2013-08-27 21:23:00,82.5,75.6,29.89,NE,45,0.0,0.0,79,0.00,,,0.00,WUHU216HW,2013-08-28 02:23:00,
2013-08-27 21:28:00,82.2,74.7,29.89,ENE,68,0.0,0.0,78,0.00,,,0.00,WUHU216HW,2013-08-28 02:28:00,
2013-08-27 21:33:00,82.0,74.5,29.89,NE,45,0.0,0.0,78,0.00,,,0.00,WUHU216HW,2013-08-28 02:33:00,
2013-08-27 21:38:00,81.8,74.5,29.89,ENE,68,0.0,0.0,78,0.00,,,0.00,WUHU216HW,2013-08-28 02:38:00,
2013-08-27 21:43:00,81.6,74.1,29.89,ENE,68,0.0,0.0,78,0.00,,,0.00,WUHU216HW,2013-08-28 02:43:00,
2013-08-27 21:48:00,81.5,74.0,29.89,NNE,23,0.0,0.0,78,0.00,,,0.00,WUHU216HW,2013-08-28 02:48:00,
2013-08-27 21:53:00,81.3,73.4,29.90,ENE,68,0.0,0.0,77,0.00,,,0.00,WUHU216HW,2013-08-28 02:53:00,
2013-08-27 21:58:00,81.1,73.2,29.90,ENE,68,0.0,0.0,77,0.00,,,0.00,WUHU216HW,2013-08-28 02:58:00,
2013-08-27 22:03:00,80.7,72.9,29.90,ENE,68,0.0,0.0,77,0.00,,,0.00,WUHU216HW,2013-08-28 03:03:00,
2013-08-27 22:08:00,80.4,73.1,29.90,North,0,0.0,0.0,78,0.00,,,0.00,WUHU216HW,2013-08-28 03:08:00,
2013-08-27 22:13:00,80.4,72.9,29.90,North,0,0.0,0.0,78,0.00,,,0.00,WUHU216HW,2013-08-28 03:13:00,
2013-08-27 22:18:00,80.2,72.7,29.90,ENE,68,0.0,0.0,78,0.00,,,0.00,WUHU216HW,2013-08-28 03:18:00,
2013-08-27 22:23:00,79.8,72.4,29.90,ENE,68,0.0,0.0,78,0.00,,,0.00,WUHU216HW,2013-08-28 03:23:00,
2013-08-27 22:28:00,79.7,72.6,29.90,ENE,68,0.0,0.0,79,0.00,,,0.00,WUHU216HW,2013-08-28 03:28:00,
2013-08-27 22:33:00,79.5,72.4,29.90,ENE,68,0.0,0.0,79,0.00,,,0.00,WUHU216HW,2013-08-28 03:33:00,
2013-08-27 22:38:00,79.3,72.2,29.91,East,90,0.0,0.0,79,0.00,,,0.00,WUHU216HW,2013-08-28 03:38:00,
2013-08-27 22:43:00,79.1,72.1,29.91,NE,45,0.0,0.0,79,0.00,,,0.00,WUHU216HW,2013-08-28 03:43:00,
2013-08-27 22:48:00,78.9,71.9,29.91,NNE,23,0.0,0.0,79,0.00,,,0.00,WUHU216HW,2013-08-28 03:48:00,
2013-08-27 22:53:00,78.9,72.1,29.91,ENE,68,0.0,0.0,79,0.00,,,0.00,WUHU216HW,2013-08-28 03:53:00,
2013-08-27 22:58:00,78.6,71.9,29.92,ESE,113,0.0,0.0,80,0.00,,,0.00,WUHU216HW,2013-08-28 03:58:00,
2013-08-27 23:01:00,78.6,71.9,29.91,ENE,68,0.0,0.0,80,0.00,,,0.00,WUHU216HW,2013-08-28 04:01:00,
2013-08-27 23:06:00,78.6,72.3,29.92,NE,45,0.0,0.0,81,0.00,,,0.00,WUHU216HW,2013-08-28 04:06:00,
2013-08-27 23:11:00,78.6,72.3,29.92,NNE,23,0.0,0.0,81,0.00,,,0.00,WUHU216HW,2013-08-28 04:11:00,
2013-08-27 23:16:00,78.6,72.3,29.92,NE,45,0.0,0.0,81,0.00,,,0.00,WUHU216HW,2013-08-28 04:16:00,
2013-08-27 23:21:00,78.6,72.3,29.92,ENE,68,0.0,0.0,81,0.00,,,0.00,WUHU216HW,2013-08-28 04:21:00,
2013-08-27 23:26:00,78.6,72.3,29.92,NE,45,0.0,0.0,81,0.00,,,0.00,WUHU216HW,2013-08-28 04:26:00,
2013-08-27 23:31:00,78.4,72.1,29.92,NE,45,0.0,0.0,81,0.00,,,0.00,WUHU216HW,2013-08-28 04:31:00,
2013-08-27 23:36:00,78.0,71.7,29.93,NE,45,0.0,0.0,81,0.00,,,0.00,WUHU216HW,2013-08-28 04:36:00,
2013-08-27 23:41:00,77.7,71.4,29.93,NE,45,0.0,0.0,81,0.00,,,0.00,WUHU216HW,2013-08-28 04:41:00,
2013-08-27 23:46:00,77.5,71.6,29.93,NE,45,0.0,0.0,82,0.00,,,0.00,WUHU216HW,2013-08-28 04:46:00,
2013-08-27 23:51:00,77.3,71.4,29.93,NE,45,0.0,0.0,82,0.00,,,0.00,WUHU216HW,2013-08-28 04:51:00,
2013-08-27 23:56:00,77.1,71.6,29.93,NE,45,0.0,0.0,83,0.00,,,0.00,WUHU216HW,2013-08-28 04:56:00,